Location: Shandelee
(41.8790°N, 74.8713°W)
Time: 04:12:06
(UTC+00:00)

Cosmos 2058 - Pass Details

Date: 29 October 2020
Orbit: 561 x 584 km, 82.5° (Epoch: 23 November)

Event Time Altitude Azimuth Distance (km) Brightness Sun altitude
Rises 22:19:19 0° 10° (N) 2,762 6.1 -4.9°
Reaches altitude 10° 22:22:18 10° 33° (NNE) 1,861 5.1 -5.4°
Maximum altitude 22:24:46 15° 71° (ENE) 1,535 4.4 -5.8°
Drops below altitude 10° 22:27:15 10° 108° (ESE) 1,855 5.0 -6.3°
Sets 22:30:11 0° 131° (SE) 2,749 6.0 -6.8°
